GW4049 Weather Reports


Display with metric or nautical units.
time (UTC)temp
F
wind
direction
speed
MPH
gust
MPH
rain 1hr
in
rain 24hr
in
rain mn
in
humidity
%
barometer
mb
20260505200807 27 47 4.0 7.0 0.00 0.04 0.04 99 1015.8
20260505200303 27 184 3.0 4.0 0.00 0.04 0.04 99 1015.7
20260505195758 26 226 1.0 7.0 0.00 0.04 0.04 99 1015.6
20260505195256 26 118 4.0 9.0 0.00 0.04 0.04 99 1015.8
20260505194753 27 122 2.0 4.0 0.00 0.04 0.04 99 1016.0
20260505194250 27 220 2.0 7.0 0.00 0.04 0.04 99 1016.0
20260505193745 27 261 0.0 8.0 0.00 0.04 0.04 99 1015.6
20260505193243 27 165 2.0 7.0 0.00 0.04 0.04 99 1015.6
20260505192741 28 266 2.0 3.0 0.00 0.04 0.04 99 1015.7
20260505192239 27 90 4.0 4.0 0.00 0.04 0.04 99 1016.0
20260505191737 27 323 1.0 3.0 0.00 0.04 0.04 99 1015.8
20260505191235 27 64 4.0 7.0 0.00 0.04 0.04 99 1016.0
20260505190731 26 101 3.0 7.0 0.00 0.04 0.04 99 1016.0
20260505190231 26 52 3.0 7.0 0.00 0.04 0.04 99 1016.1
20260505185728 27 266 1.0 4.0 0.00 0.04 0.04 99 1016.1
20260505185224 26 249 0.0 6.0 0.00 0.04 0.04 99 1016.2
20260505184720 27 124 2.0 4.0 0.00 0.04 0.04 99 1016.2
20260505184218 27 71 4.0 7.0 0.00 0.04 0.04 99 1016.2
20260505183714 27 147 1.0 4.0 0.00 0.04 0.04 99 1016.1
20260505183212 27 287 3.0 7.0 0.00 0.04 0.04 99 1016.5
20260505182708 27 353 1.0 4.0 0.00 0.04 0.04 99 1016.6
20260505182205 27 19 3.0 6.0 0.00 0.04 0.04 99 1016.4
20260505181701 28 137 3.0 6.0 0.00 0.04 0.04 99 1016.5
20260505181159 26 232 2.0 7.0 0.00 0.04 0.04 99 1016.4
20260505180655 27 238 2.0 4.0 0.00 0.04 0.04 99 1016.4
20260505180153 28 39 2.0 4.0 0.00 0.04 0.04 99 1016.6
20260505175648 27 260 0.0 3.0 0.00 0.04 0.04 99 1016.8
20260505175145 27 334 4.0 6.0 0.00 0.04 0.04 99 1016.6
20260505174642 27 20 2.0 4.0 0.00 0.04 0.04 99 1016.8
20260505174137 27 122 5.0 8.0 0.00 0.04 0.04 99 1016.8
20260505173635 27 218 3.0 6.0 0.00 0.04 0.04 99 1016.6
20260505173131 27 327 2.0 4.0 0.00 0.04 0.04 99 1016.9
20260505172629 26 68 1.0 4.0 0.00 0.04 0.04 99 1017.0
20260505172126 26 8 5.0 8.0 0.00 0.04 0.04 99 1016.8
20260505171620 26 297 1.0 3.0 0.00 0.04 0.04 99 1016.8
20260505171118 27 236 1.0 3.0 0.00 0.04 0.04 99 1016.9
20260505170615 26 283 0.0 6.0 0.00 0.04 0.04 99 1016.9
20260505170111 27 102 4.0 7.0 0.00 0.04 0.04 99 1017.1
20260505165606 26 2 2.0 3.0 0.00 0.04 0.04 99 1016.9
20260505165102 26 314 4.0 7.0 0.00 0.04 0.04 99 1017.1
20260505164558 27 347 3.0 4.0 0.00 0.04 0.04 99 1017.0
20260505164056 26 299 1.0 4.0 0.00 0.04 0.04 99 1017.3
20260505163554 26 127 3.0 3.0 0.05 0.04 0.04 99 1017.1
20260505163051 26 251 1.0 2.0 0.05 0.04 0.04 99 1017.3
20260505162544 26 307 3.0 3.0 0.07 0.03 0.03 99 1017.3
20260505162041 26 296 2.0 4.0 0.07 0.03 0.03 99 1017.5
20260505161538 26 268 0.0 1.0 0.12 0.02 0.02 99 1017.4
20260505161035 26 290 1.0 3.0 0.12 0.02 0.02 99 1017.5
20260505160533 27 325 1.0 3.0 0.00 0.00 0.00 99 1017.3
20260505153003 26 294 0.0 3.0 0.00 0.00 0.00 99 1017.4
20260505152501 27 94 2.0 3.0 0.00 0.00 0.00 99 1017.4
20260505151955 27 215 1.0 1.0 0.00 0.00 0.00 99 1017.3
20260505151445 27 305 2.0 3.0 0.00 0.00 0.00 99 1017.4
20260505150942 27 335 2.0 4.0 0.00 0.00 0.00 99 1017.1
20260505150434 26 283 0.0 2.0 0.00 0.00 0.00 99 1017.7
20260505140403 26 279 0.0 3.0 0.00 0.00 0.00 99 1017.8
20260505124811 26 296 2.0 3.0 0.00 0.00 0.00 99 1017.3
20260505124308 27 276 1.0 2.0 0.00 0.00 0.00 99 1017.0
20260505123804 27 267 0.0 2.0 0.00 0.00 0.00 99 1017.1
20260505123300 27 294 3.0 4.0 0.00 0.00 0.00 99 1016.9
20260505122756 27 250 2.0 3.0 0.00 0.00 0.00 99 1017.1
20260505122254 27 21 2.0 3.0 0.00 0.00 0.00 99 1017.0
20260505121750 27 277 1.0 3.0 0.00 0.00 0.00 99 1017.4
20260505121247 27 297 1.0 2.0 0.00 0.00 0.00 99 1017.3
20260505120744 27 289 2.0 4.0 0.00 0.00 0.00 99 1017.1
20260505120240 27 287 3.0 6.0 0.00 0.00 0.00 99 1017.3
20260505115739 28 282 3.0 4.0 0.00 0.00 0.00 99 1017.1
20260505115236 27 58 3.0 6.0 0.00 0.00 0.00 99 1017.0
20260505114734 28 355 2.0 6.0 0.00 0.00 0.00 99 1016.9
20260505114229 28 335 3.0 7.0 0.00 0.00 0.00 99 1017.1
20260505113726 28 318 1.0 2.0 0.00 0.00 0.00 99 1016.8
20260505113223 29 345 2.0 4.0 0.00 0.00 0.00 99 1017.0
20260505112719 29 318 1.0 4.0 0.00 0.00 0.00 99 1017.1
20260505112217 29 275 2.0 6.0 0.00 0.00 0.00 99 1017.1
20260505111712 30 255 0.0 2.0 0.00 0.00 0.00 99 1016.8
20260505111208 31 3 6.0 7.0 0.00 0.00 0.00 99 1016.8
20260505110704 31 347 2.0 4.0 0.00 0.00 0.00 99 1016.8
20260505110202 31 1 3.0 3.0 0.00 0.00 0.00 99 1016.5
20260505102137 33 281 0.0 0.0 0.00 0.00 0.00 99 1016.6
20260505101636 33 311 0.0 0.0 0.00 0.00 0.00 99 1016.8
20260505101132 33 292 0.0 0.0 0.00 0.00 0.00 99 1016.6
20260505100628 33 288 0.0 0.0 0.00 0.00 0.00 99 1016.2
20260505100125 33 242 0.0 2.0 0.00 0.00 0.00 99 1016.4
20260505095621 33 266 0.0 1.0 0.00 0.00 0.00 99 1016.5
20260505095118 33 282 0.0 1.0 0.00 0.00 0.00 99 1016.5
20260505094614 33 283 1.0 3.0 0.00 0.00 0.00 99 1016.4
20260505094111 33 270 0.0 0.0 0.00 0.00 0.00 99 1016.8
20260505093607 33 270 0.0 0.0 0.00 0.00 0.00 99 1016.6
20260505093104 33 280 0.0 0.0 0.00 0.00 0.00 99 1016.6
20260505092601 33 297 2.0 2.0 0.00 0.00 0.00 99 1016.9
20260505092100 33 259 0.0 0.0 0.00 0.00 0.00 99 1016.6
20260505091556 33 267 0.0 2.0 0.00 0.00 0.00 99 1016.6
20260505091055 33 275 0.0 0.0 0.00 0.00 0.00 99 1016.8
20260505090552 33 271 0.0 0.0 0.00 0.00 0.00 99 1016.8
20260505090050 33 301 0.0 0.0 0.00 0.00 0.00 99 1016.6
20260505085547 33 292 0.0 0.0 0.00 0.00 0.00 99 1016.6
20260505085046 33 289 0.0 0.0 0.00 0.00 0.00 99 1016.8
20260505084543 33 272 0.0 0.0 0.00 0.00 0.00 99 1016.9
20260505084041 33 264 0.0 0.0 0.00 0.00 0.00 99 1017.1
20260505083538 33 269 0.0 0.0 0.00 0.00 0.00 99 1017.0
20260505083035 33 267 0.0 0.0 0.00 0.00 0.00 99 1017.0
20260505082530 33 262 0.0 0.0 0.00 0.00 0.00 99 1017.1
20260505082027 33 262 0.0 0.0 0.00 0.00 0.00 99 1017.1
20260505081524 33 266 0.0 0.0 0.00 0.00 0.00 99 1017.1
20260505081021 33 266 0.0 0.0 0.00 0.00 0.00 99 1017.1
20260505080517 33 265 0.0 0.0 0.00 0.00 0.00 99 1017.0
20260505080014 33 252 0.0 0.0 0.00 0.00 0.00 99 1017.3
20260505075510 33 253 0.0 0.0 0.00 0.00 0.00 99 1017.4
20260505075007 33 253 0.0 0.0 0.00 0.00 0.00 99 1017.3
20260505074504 33 249 0.0 0.0 0.00 0.00 0.00 99 1017.4
20260505074001 33 251 0.0 0.0 0.00 0.00 0.00 99 1017.5
20260505073459 33 259 0.0 0.0 0.00 0.00 0.00 99 1017.4
20260505072956 33 252 0.0 0.0 0.00 0.00 0.00 99 1017.4
20260505072452 33 248 0.0 0.0 0.00 0.00 0.00 99 1017.5
20260505071948 33 246 0.0 0.0 0.00 0.00 0.00 99 1017.5
20260505071444 33 239 0.0 0.0 0.00 0.00 0.00 99 1017.3
20260505070943 33 255 0.0 0.0 0.00 0.00 0.00 99 1017.7
20260505070439 33 254 0.0 0.0 0.00 0.00 0.00 99 1017.5
20260505065935 33 251 0.0 0.0 0.00 0.00 0.00 99 1017.7
20260505065431 33 258 1.0 3.0 0.00 0.00 0.00 99 1017.7
20260505064928 33 276 2.0 4.0 0.00 0.00 0.00 99 1017.9
20260505064425 33 287 2.0 2.0 0.00 0.00 0.00 99 1017.5
20260505063924 33 294 1.0 2.0 0.00 0.00 0.00 99 1017.9
20260505063420 33 269 0.0 1.0 0.00 0.00 0.00 99 1017.5
20260505062916 33 270 0.0 0.0 0.00 0.00 0.00 99 1017.5
20260505062414 34 301 1.0 2.0 0.00 0.00 0.00 99 1017.5
20260505061910 34 274 0.0 0.0 0.00 0.00 0.00 99 1017.4
20260505061409 34 236 0.0 0.0 0.00 0.00 0.00 99 1017.5
20260505060906 34 254 0.0 1.0 0.00 0.00 0.00 99 1017.5
20260505060402 34 271 0.0 0.0 0.00 0.00 0.00 99 1017.7
20260505055858 34 258 0.0 0.0 0.00 0.22 0.22 99 1017.4
20260505055355 34 277 0.0 0.0 0.00 0.22 0.22 99 1017.7
20260505054852 34 242 0.0 0.0 0.00 0.22 0.22 99 1017.8
20260505054349 34 254 0.0 0.0 0.00 0.22 0.22 99 1017.7
20260505053847 34 242 0.0 0.0 0.00 0.22 0.22 98 1017.7
20260505053344 34 242 0.0 0.0 0.00 0.22 0.22 98 1017.7
20260505052841 34 251 0.0 0.0 0.00 0.22 0.22 98 1017.7
20260505052337 34 257 0.0 0.0 0.00 0.22 0.22 98 1017.9
20260505051834 34 241 1.0 2.0 0.05 0.22 0.22 98 1017.9
20260505051332 34 228 3.0 6.0 0.05 0.22 0.22 98 1017.7
20260505050830 34 242 2.0 3.0 0.00 0.21 0.21 99 1017.7
20260505050329 34 236 2.0 6.0 0.00 0.21 0.21 99 1017.9
20260505041758 34 262 1.0 3.0 0.00 0.21 0.21 99 1018.3
20260505041255 34 240 3.0 4.0 0.00 0.21 0.21 98 1018.2
20260505040753 34 240 1.0 3.0 0.00 0.21 0.21 98 1018.6
20260505040250 34 240 2.0 3.0 0.07 0.21 0.21 98 1018.7
20260505035747 34 240 2.0 6.0 0.07 0.21 0.21 98 1018.3
20260505035242 34 215 3.0 6.0 0.00 0.20 0.20 98 1018.1
20260505034739 34 248 4.0 8.0 0.05 0.20 0.20 97 1018.2
20260505034236 34 168 3.0 9.0 0.12 0.20 0.20 97 1017.8
20260505033733 34 173 8.0 11.0 0.19 0.19 0.19 96 1017.9
20260505033231 34 122 4.0 7.0 0.19 0.18 0.18 97 1018.5
20260505032729 34 236 2.0 4.0 0.19 0.16 0.16 97 1018.5
20260505032224 34 178 4.0 4.0 0.17 0.15 0.15 97 1018.6
20260505031721 34 231 1.0 3.0 0.17 0.13 0.13 97 1018.6
20260505031217 34 240 0.0 0.0 0.12 0.11 0.11 96 1018.7
20260505030714 34 252 0.0 0.0 0.24 0.10 0.10 96 1018.3
20260505030205 34 265 0.0 0.0 0.26 0.08 0.08 95 1018.6
20260505025701 36 254 0.0 0.0 0.26 0.06 0.06 95 1018.6
20260505025200 37 265 1.0 1.0 0.12 0.03 0.03 95 1018.2
20260505024657 37 263 1.0 2.0 0.05 0.02 0.02 94 1018.2
20260505024154 37 261 0.0 2.0 0.00 0.01 0.01 94 1018.5
20260505023652 37 234 2.0 3.0 0.00 0.01 0.01 94 1018.2
20260505023149 37 187 5.0 9.0 0.00 0.01 0.01 93 1018.1
20260505022646 37 254 2.0 6.0 0.00 0.01 0.01 94 1017.9
20260505022143 37 184 4.0 6.0 0.00 0.01 0.01 93 1017.9
20260505021639 37 227 1.0 3.0 0.00 0.01 0.01 92 1017.7
20260505021137 37 50 4.0 6.0 0.00 0.01 0.01 90 1017.5
20260505020632 38 80 1.0 6.0 0.00 0.01 0.01 87 1017.3
20260505020128 38 208 0.0 3.0 0.00 0.01 0.01 86 1017.3
20260505015625 38 52 1.0 4.0 0.00 0.01 0.01 84 1017.4
20260505015121 38 249 0.0 2.0 0.00 0.01 0.01 86 1017.4
20260505014618 38 251 1.0 4.0 0.00 0.01 0.01 86 1017.4
20260505014115 38 208 2.0 3.0 0.00 0.01 0.01 87 1017.4
20260505013608 38 249 1.0 2.0 0.00 0.01 0.01 88 1017.1
20260505013105 38 254 1.0 4.0 0.00 0.01 0.01 87 1017.1
20260505012603 38 234 3.0 6.0 0.00 0.01 0.01 87 1017.3
20260505012059 38 159 2.0 7.0 0.00 0.01 0.01 87 1017.4
20260505011555 38 139 3.0 6.0 0.00 0.01 0.01 86 1017.0
20260505011053 38 135 8.0 9.0 0.00 0.01 0.01 85 1017.3
20260505010548 38 223 2.0 7.0 0.00 0.01 0.01 87 1017.4
20260505010044 38 226 0.0 2.0 0.00 0.01 0.01 87 1017.5
20260505005541 38 212 2.0 4.0 0.00 0.01 0.01 86 1017.3
20260505005038 39 223 3.0 6.0 0.00 0.01 0.01 85 1017.3
20260505004535 39 226 4.0 8.0 0.00 0.01 0.01 87 1017.4
20260505004031 39 238 6.0 8.0 0.00 0.01 0.01 87 1017.4
20260505003529 38 171 7.0 9.0 0.00 0.01 0.01 87 1017.4
20260505003026 39 173 3.0 9.0 0.00 0.01 0.01 88 1017.4
20260505002520 39 207 5.0 8.0 0.00 0.01 0.01 88 1017.4
20260505002015 40 192 3.0 3.0 0.00 0.01 0.01 86 1017.8
20260505001512 40 157 2.0 7.0 0.00 0.01 0.01 84 1017.8
20260505001009 40 275 1.0 3.0 0.00 0.01 0.01 81 1017.9
20260505000506 40 275 1.0 2.0 0.00 0.01 0.01 81 1018.5
20260505000003 40 262 0.0 2.0 0.00 0.01 0.01 81 1018.3
20260504235500 40 245 0.0 2.0 0.00 0.01 0.01 81 1018.5
20260504234956 40 273 1.0 2.0 0.00 0.01 0.01 80 1018.5
20260504234453 40 262 1.0 3.0 0.00 0.01 0.01 81 1017.9
20260504233949 40 263 0.0 0.0 0.00 0.01 0.01 80 1017.9
20260504233445 40 266 0.0 0.0 0.00 0.01 0.01 80 1017.9
20260504232943 40 256 0.0 0.0 0.00 0.01 0.01 82 1018.1
20260504232440 40 274 0.0 0.0 0.00 0.01 0.01 80 1017.8
20260504231937 40 264 0.0 1.0 0.07 0.01 0.01 81 1017.4
20260504231433 40 3 1.0 3.0 0.00 0.00 0.00 77 1017.3
20260504230930 41 358 2.0 3.0 0.00 0.00 0.00 74 1017.7
20260504230426 41 300 2.0 3.0 0.00 0.00 0.00 72 1017.7
20260504225926 41 5 4.0 7.0 0.00 0.00 0.00 71 1017.7
20260504225422 41 295 2.0 3.0 0.00 0.00 0.00 71 1017.7
20260504224919 42 20 4.0 7.0 0.00 0.00 0.00 69 1017.5
20260504224415 42 343 2.0 7.0 0.00 0.00 0.00 69 1017.0
20260504223913 43 270 5.0 7.0 0.00 0.00 0.00 67 1017.1
20260504223408 43 358 6.0 11.0 0.00 0.00 0.00 65 1017.1
20260504222904 43 263 1.0 3.0 0.00 0.00 0.00 66 1016.9
20260504222401 43 331 5.0 8.0 0.00 0.00 0.00 65 1017.1
20260504221900 43 349 4.0 6.0 0.00 0.00 0.00 64 1016.9
20260504221356 44 19 3.0 8.0 0.00 0.00 0.00 61 1017.0
20260504220853 46 303 5.0 14.0 0.00 0.00 0.00 56 1017.1
20260504220350 46 19 3.0 7.0 0.00 0.00 0.00 54 1016.8
20260504215848 47 7 2.0 6.0 0.00 0.00 0.00 53 1016.9
20260504215344 47 300 3.0 4.0 0.00 0.00 0.00 50 1017.0
20260504214840 48 302 1.0 6.0 0.00 0.00 0.00 48 1016.9
20260504214337 48 268 2.0 6.0 0.00 0.00 0.00 48 1016.8
20260504213834 49 170 4.0 8.0 0.00 0.00 0.00 45 1017.0
20260504213330 50 69 3.0 4.0 0.00 0.00 0.00 44 1016.9
20260504212827 50 308 1.0 2.0 0.00 0.00 0.00 43 1017.0
20260504212323 50 276 0.0 1.0 0.00 0.00 0.00 44 1016.6
20260504211821 50 240 3.0 4.0 0.00 0.00 0.00 42 1016.6
20260504211317 50 235 2.0 4.0 0.00 0.00 0.00 44 1017.0
20260504210815 50 58 4.0 6.0 0.00 0.00 0.00 45 1016.9
20260504210311 51 325 2.0 4.0 0.00 0.00 0.00 45 1016.9
20260504205808 50 355 1.0 2.0 0.00 0.00 0.00 46 1017.1
20260504205307 51 266 2.0 6.0 0.00 0.00 0.00 47 1017.1
20260504204805 50 95 2.0 4.0 0.00 0.00 0.00 46 1017.1
20260504204303 49 331 2.0 4.0 0.00 0.00 0.00 51 1017.3
20260504203802 49 15 6.0 8.0 0.00 0.00 0.00 51 1017.3
20260504203258 48 281 1.0 6.0 0.00 0.00 0.00 50 1017.5
20260504202753 48 63 2.0 4.0 0.00 0.00 0.00 53 1017.5
20260504202250 49 324 6.0 10.0 0.00 0.00 0.00 51 1017.8
20260504201747 49 305 3.0 8.0 0.00 0.00 0.00 52 1017.8
20260504201244 48 340 4.0 14.0 0.00 0.00 0.00 53 1017.7